Regional Weather Roundup
Issued by NWS Newport/Morehead, NC

Current Version | Previous Version | Graphics & Text | Print | Product List | Glossary Off
Versions: 1 2 3 4 5 6 7 8 9 10 11 12 13 14 15 16 17 18 19 20 21 22 23 24 25 26 27 28 29 30 31 32 33 34 35 36 37 38 39 40 41 42 43 44 45 46 47 48 49 50

000
ASUS42 KMHX 270810
RWRMHX
WEATHER ROUNDUP FOR EASTERN NORTH CAROLINA
NATIONAL WEATHER SERVICE NEWPORT/MOREHEAD CITY NC
300 AM EST THU NOV 27 2014

NOTE: "FAIR" INDICATES FEW OR NO CLOUDS BELOW 12,000 FEET
WITH NO SIGNIFICANT WEATHER AND/OR OBSTRUCTIONS TO VISIBILITY

NCZ015>017-031-032-045>047-102-103-270900-
NORTH COAST

CITY           SKY/WX    TMP DP  RH WIND       PRES   REMARKS
EDENTON          N/A     35  34  96 CALM      30.07S
ELIZABETH CITY CLEAR     37  33  85 SW5       30.07F
KITTY HAWK     PTSUNNY   41  38  87 NW5       30.05S
MANTEO         CLOUDY    41  37  84 W8        30.07S

$$

NCZ045>047-081-094-103-104-270900-
CENTRAL COAST

CITY           SKY/WX    TMP DP  RH WIND       PRES   REMARKS
FRISCO         CLOUDY    42  39  89 NW7       30.10R
SWANQUARTER      N/A     41 N/A N/A NW2       30.06S

$$

NCZ095-097-098-100-101-270900-
SOUTHERN COAST

CITY           SKY/WX    TMP DP  RH WIND       PRES   REMARKS
BEAUFORT       CLEAR     40  38  93 E3        30.10F
CEDAR ISLAND     N/A     43 N/A N/A NW6       30.12S
JACKSONVILLE   PTCLDY    39  37  92 S3        30.09F
PINEY ISLAND   MOSUNNY   44  38  79 CALM      30.09S
WILMINGTON     PTCLDY    38  37  97 CALM      30.10S FOG


$$

NCZ011>013-027>030-043-044-078>080-089-090>093-098-270900-
COASTAL PLAIN

CITY           SKY/WX    TMP DP  RH WIND       PRES   REMARKS
AHOSKIE        CLOUDY    35  34  97 CALM      30.08R
CLINTON        PTCLDY    39  39 100 CALM      30.08F
ELIZABETHTOWN  FOG       40  40 100 SE3       30.07F VSB 1/4
GOLDSBORO      CLOUDY    39  38  98 CALM      30.07S
GREENVILLE     CLOUDY    37  37 100 CALM      30.10R
HAVELOCK       CLEAR     38  37  97 S3        30.10F
KENANSVILLE    CLEAR     37  37 100 CALM      30.09S
KINSTON        PTCLDY    37  37 100 CALM      30.09S
NEW BERN       PTCLDY    38  34  85 CALM      30.10F
RICHLANDS      PTCLDY    36  32  87 CALM      30.09F
ROCKY MOUNT    MOCLDY    38  36  92 CALM      30.08S
WASHINGTON     CLEAR     35  34  96 CALM      30.08F
WHITEVILLE     CLEAR     40  39  97 CALM      30.08S

$$

AMZ130-135-150-152-154-156-158-170-250-252-270-ANZ085-086-088-633-658-670-270900-
MARINE OBSERVATIONS

STATION/POSITION TIME  TEMP    WIND        PRES    WAVE   SWELL
                       AIR SEA DIR/SP/G            HT/PER HT/PER
                 (UTC) (F)     (DEG/KT/KT) (MB)    (FT/S) (FT/S)
CHESAPEAKE LIGHT 0700   43     290/ 18/ 21 1018.1
64 E VA BEACH    0800   48 60  290/ 17/ 23 1016.3   10/ 9   8/ 9
DUCK             0800   41 55  300/  9/ 14 1017.3
2 E DUCK         0800      57                N/A     5/10   2/11
10 NE DUCK       0700      59                N/A     7/ 9   2/11
OREGON INLET     0800   42 56  300/ 10/ 15 1018.2
13E OREGON INLT  0800      62                N/A     8/ 9   2/11
HATTERAS CG      0800   44 60  300/ 13/ 14 1019.4
DIAMOND BUOY     0800   47     290/ 14/ 17 1018.8    8/ 9   7/ 9
17 S OCRACOKE    NOT AVBL
CAPE LOOKOUT     0700   44     340/  5/  6 1019.1
BEAUFORT LAB     0800   42 58   80/  2/  3 1018.2
30 SE NEW RIVER  0700   49 66  330/  4/  8 1019.9
5 SE WRIGHTSVLE  0700   46 59   CALM  /  2 1019.1
225 S CAPE HAT   0657   66 73  300/ 17/ 21 1018.9   10/ 9   7/ 9
41 SE CHARLESTON 0800   60 74  280/ 17/ 23 1019.3    5/ 5   2/ 9

$$



USA.gov is the U.S. government's official web portal to all federal, state and local government web resources and services.